This demonstration page uses our WeatherBlox Daily Observations layout. Learn more.

Left ArrowRight Arrow

Hourly Observations for July 26, 2021

Temp ( °F °C ) Dew Point ( °F °C ) Humidity (%) Winds ( mph kmh ) Pressure ( in mb ) Visibility ( mi km ) Precip ( " mm )
12:56 am 00:56 Clear 65 18.3 63 17.2 93 93 S 6 9 30.03 1017 8 13 0.00 0.00
1:56 am 01:56 Clear 64 17.8 63 17.2 96 96 SSE 5 7 30.03 1017 8 13 0.00 0.00
2:56 am 02:56 Clear 64 17.8 63 17.2 96 96 S 5 7 30.01 1016 8 13 0.00 0.00
3:56 am 03:56 Clear with Mist and Fog 62 16.7 61 16.1 96 96 E 5 7 30.00 1016 5 8 0.00 0.00
4:56 am 04:56 Clear with Mist and Fog 62 16.7 61 16.1 96 96 ENE 3 6 29.99 1016 5 8 0.00 0.00
5:56 am 05:56 Clear with Mist and Fog 62 16.7 61 16.1 96 96 Calm 30.00 1016 6 10 0.00 0.00
6:22 am 06:22 Partly Cloudy with Mist and Fog 63 17 61 16 94 94 ESE 3 6 29.99 1016 5 8 0.00 0.00
6:31 am 06:31 Mostly Cloudy with Mist and Fog 63 17 61 16 94 94 SE 6 9 29.99 1016 2 3 0.00 0.00
6:33 am 06:33 Mostly Cloudy with Mist and Fog 63 17 63 17 100 100 SE 6 9 29.99 1016 1 2 0.00 0.00
6:35 am 06:35 Mostly Cloudy with Fog 63 17 63 17 100 100 SSE 6 9 29.99 1016 1 1 0.00 0.00
6:43 am 06:43 Cloudy with Fog 64 18 64 18 100 100 S 5 7 29.98 1015 0 0 0.00 0.00
6:56 am 06:56 Cloudy with Fog 66 18.9 66 18.9 100 100 S 7 11 29.99 1016 N/A 0.00 0.00
7:44 am 07:44 Cloudy with Mist and Fog 70 21 70 21 100 100 S 6 9 29.98 1015 1 1 0.00 0.00
7:51 am 07:51 Cloudy with Mist and Fog 70 21 70 21 100 100 S 8 13 29.98 1015 1 2 0.00 0.00
7:56 am 07:56 Cloudy with Mist and Fog 70 21.1 70 21.1 100 100 S 8 13 30.01 1016 2 3 0.00 0.00
8:03 am 08:03 Cloudy with Mist and Fog 72 22 70 21 94 94 SSE 9 15 29.97 1015 3 5 0.00 0.00
8:45 am 08:45 Mostly Cloudy 72 22 72 22 100 100 SSE 8 13 29.97 1015 7 11 0.00 0.00
8:56 am 08:56 Cloudy 73 22.8 71 21.7 94 94 S 10 17 30.01 1016 9 14 0.00 0.00
9:40 am 09:40 Mostly Sunny 75 24 72 22 89 89 SSE 13 20 29.97 1015 10 16 0.00 0.00
9:56 am 09:56 Partly Cloudy 77 25 72 22.2 85 85 SSE 12 19 30.02 1017 10 16 0.00 0.00
10:56 am 10:56 Mostly Sunny 79 26.1 71 21.7 77 77 SSE 15 24 30.01 1016 10 16 0.00 0.00
11:32 am 11:32 Mostly Cloudy 81 27 72 22 74 74 SSE 10 17 29.94 1014 10 16 0.00 0.00
11:41 am 11:41 Mostly Sunny 81 27 72 22 74 74 SSE 9 15 29.94 1014 10 16 0.00 0.00
11:56 am 11:56 Mostly Sunny 82 27.8 72 22.2 72 72 SE 10 17 30.01 1016 10 16 0.00 0.00
12:56 pm 12:56 Partly Cloudy 85 29.4 74 23.3 70 70 SSE 15 24 30.01 1016 10 16 0.00 0.00
1:29 pm 13:29 Mostly Cloudy 84 29 73 23 70 70 SE 14 22 29.92 1013 10 16 0.00 0.00
1:56 pm 13:56 Mostly Cloudy 85 29.4 74 23.3 70 70 SE 15 24 30.01 1016 10 16 0.00 0.00
2:32 pm 14:32 Mostly Cloudy 84 29 73 23 70 70 SE 15 24 29.92 1013 10 16 0.00 0.00
2:54 pm 14:54 Mostly Cloudy 88 31 75 24 66 66 SE 15 24 29.91 1013 10 16 0.00 0.00
2:56 pm 14:56 Mostly Cloudy 87 30.6 74 23.3 65 65 SE 15 24 30.00 1016 10 16 0.00 0.00
3:12 pm 15:12 Mostly Cloudy 86 30 75 24 70 70 SSE 14 22 29.90 1013 10 16 0.00 0.00
3:56 pm 15:56 Partly Cloudy 87 30.6 74 23.3 65 65 SSE 20 31 29.99 1016 10 16 0.00 0.00
4:56 pm 16:56 Partly Cloudy 87 30.6 74 23.3 65 65 SSE 14 22 29.98 1015 10 16 0.00 0.00
5:56 pm 17:56 Mostly Sunny 86 30 74 23.3 67 67 SSE 10 17 29.96 1015 10 16 0.00 0.00
6:56 pm 18:56 Sunny 85 29.4 74 23.3 70 70 SSE 14 22 29.93 1014 10 16 0.00 0.00
7:56 pm 19:56 Sunny 82 27.8 74 23.3 77 77 SE 8 13 29.94 1014 10 16 0.00 0.00
8:56 pm 20:56 Sunny 79 26.1 74 23.3 85 85 SE 10 17 29.96 1015 10 16 0.00 0.00
9:56 pm 21:56 Clear 78 25.6 73 22.8 85 85 SSE 9 15 29.97 1015 10 16 0.00 0.00
10:56 pm 22:56 Clear 75 23.9 71 21.7 88 88 S 7 11 29.98 1015 10 16 0.00 0.00
11:56 pm 23:56 Clear 73 22.8 70 21.1 90 90 S 8 13 29.98 1015 10 16 0.00 0.00

Powered by AerisWeather